Regional Weather Roundup
Issued by NWS Midland/Odessa, TX

Home | Current Version | Previous Version | Text Only | Print | Product List | Glossary On
Versions: 1 2 3 4 5 6 7 8 9 10 11 12 13 14 15 16 17 18 19 20 21 22 23 24 25 26 27 28 29 30 31 32 33 34 35 36 37 38 39 40 41 42 43 44 45 46 47 48 49 50
000
ASUS44 KMAF 310801
RWRMAF
MIDLAND AREA WEATHER ROUNDUP
NATIONAL WEATHER SERVICE MIDLAND TX
300 AM CDT TUE MAY 31 2016

...IN SOUTHWEST TEXAS AND SOUTHEAST NEW MEXICO...

CITY           SKY/WX    TMP DP  RH WIND       PRES   REMARKS
ALPINE         CLOUDY    57  56  94 CALM      30.07F THUNDER
ANDREWS        FAIR      63  63 100 E6        29.98F
ARTESIA        MOCLDY    63  59  88 E9        29.91F
BIG SPRING     PTCLDY    63  58  84 E6        29.95F
CARLSBAD       LGT RAIN  61  58  90 SE6       29.92F
DRYDEN           N/A     70  69  97 CALM      29.92R
FORT STOCKTON  NOT AVBL
GUAD PASS      NOT AVBL
HOBBS          CLOUDY    57  57 100 CALM      30.01F
MARFA          CLOUDY    59  54  83 N7        30.07S
MIDLAND AIRPK  CLOUDY    65  60  85 CALM      29.96F
MIDLAND INTL   CLOUDY    66  59  78 CALM      29.95F
ODESSA           N/A     65  60  84 SE3       29.97F
PECOS          CLOUDY    73  53  50 E7        29.92R
PRESIDIO       NOT AVBL
SEMINOLE       PTCLDY    62  57  84 CALM      30.00F
SNYDER         LGT RAIN  64  62  91 NW3       29.90F
WINK           CLOUDY    70  53  54 SE7       29.93F
$$
...OTHER STATIONS IN TEXAS...

CITY           SKY/WX    TMP DP  RH WIND       PRES   REMARKS
ABILENE        CLOUDY    75  66  73 SW3       29.92F
AMARILLO       PTCLDY    65  50  58 S20       29.99S
AUSTIN         MOCLDY    75  73  93 SE5       29.88F
BROWNSVILLE    MOCLDY    78  76  93 SE10      29.84F
CORPUS CHRISTI CLOUDY    78  75  90 SE8       29.86F
DALLAS FTW     CLOUDY    75  66  73 SE5       29.89S
DEL RIO        CLOUDY    73  66  78 NE5       29.85F
EL PASO        CLOUDY    66  56  70 CALM      29.98S
HOUSTON INT    PTCLDY    72  70  93 CALM      29.91F
LUBBOCK        MOCLDY    66  53  63 S18       29.92F
SAN ANGELO     PTCLDY    68  66  93 CALM      29.92F
SAN ANTONIO    CLOUDY    76  73  91 SE7       29.90F
WACO           PTCLDY    74  70  87 S12       29.90F
WICHITA FALLS  NOT AVBL
$$
...OTHER LOCATIONS IN NEW MEXICO...

CITY           SKY/WX    TMP DP  RH WIND       PRES   REMARKS
ALAMAGORDO     PTCLDY    64  43  45 S9        29.96R
ALBUQUERQUE    CLOUDY    69  33  26 S7        29.98F
CANNON AFB     CLOUDY    60  58  94 S17       30.01F
CLOVIS         CLOUDY    63  52  67 S17G25    30.01F
HOLLOMAN AFB   PTCLDY    66  48  52 SW14      29.95R
ROSWELL        MOCLDY    61  51  70 SE10      29.92F
RUIDOSO          N/A     52  45  76 NW6       30.10F
SANTA FE       CLOUDY    60  27  28 N9        30.04F
TRUTH OR CONSE PTCLDY    66  46  48 S14       29.98S
TUCUMCARI      CLOUDY    65  49  56 S10       29.97R
$$




USA.gov is the U.S. government's official web portal to all federal, state and local government web resources and services.